Detroit Metro, MI

7:19 AM EDT on September 24, 2017 (GMT -0400)
Detroit Metro Wayne County

Weather History for KDTW - May, 2014

Change the Weather History Date:

Friday, May 9, 2014

  Actual Average Record
Temperature  
Mean Temperature 71 °F 57 °F  
Max Temperature 80 °F 68 °F 90 °F (1896)
Min Temperature 62 °F 47 °F 29 °F (1983)
Degree Days  
Heating Degree Days 0 8  
Month to date heating degree days 91 85  
Since 1 July heating degree days 6933 5979  
Cooling Degree Days 6 1  
Month to date cooling degree days 11 4  
Year to date cooling degree days 11 10  
Growing Degree Days 21 (Base 50)    
Moisture  
Dew Point 58 °F    
Average Humidity 62    
Maximum Humidity 78    
Minimum Humidity 45    
Precipitation  
Precipitation 0.03 in 0.10 in 2.12 in (1875)
Month to date precipitation 0.59 0.91  
Year to date precipitation 10.39 10.07  
Snow  
Snow 0.00 in 0.00 in 6.00 in (1923)
Month to date snowfall 0.0 0.0  
Since 1 July snowfall 94.9 42.5  
Snow Depth 0.00 in    
Sea Level Pressure  
Sea Level Pressure 29.80 in    
Wind  
Wind Speed 13 mph (South)    
Max Wind Speed 25 mph    
Max Gust Speed 35 mph    
Visibility 9 miles    
Events Rain , Thunderstorm    
T = Trace of Precipitation, MM = Missing Value Source: NWS Daily Summary

Daily Weather History Graph

Daily Weather History Graph

Search for Another Location

Airport or City:

Trip Planner

Search our weather history database for the weather conditions in past years. The results will help you decide how hot, cold, wet, or windy it might be!

Date:

Astronomy

May. 09, 2014 Rise Set
Actual Time 6:18 AM EDT 8:41 PM EDT
Civil Twilight 5:47 AM EDT 9:12 PM EDT
Nautical Twilight 5:08 AM EDT 9:52 PM EDT
Astronomical Twilight 4:25 AM EDT 10:35 PM EDT
Moon 3:32 PM EDT (5/9) 3:26 AM EDT (5/9)
Length of Visible Light 15h 25m
Length of Day
14h 22m
Waxing Gibbous, 73% of the Moon is Illuminated
May 9
Waxing Gibbous
May 14
Full
May 21
Last Quarter
May 28
New
Jun 5
First Quarter

Hourly Weather History & Observations

Time (EDT) Temp. Heat Index Dew Point Humidity Pressure Visibility Wind Dir Wind Speed Gust Speed Precip Events Conditions
12:53 AM 72.0 °F - 57.9 °F 61% 29.90 in 10.0 mi South 9.2 mph - N/A   Mostly Cloudy
1:53 AM 71.1 °F - 57.9 °F 63% 29.89 in 10.0 mi South 9.2 mph - N/A   Overcast
2:53 AM 70.0 °F - 57.9 °F 65% 29.88 in 10.0 mi South 10.4 mph - N/A   Overcast
3:53 AM 70.0 °F - 57.0 °F 63% 29.87 in 10.0 mi South 10.4 mph - N/A   Overcast
4:53 AM 70.0 °F - 55.0 °F 59% 29.86 in 10.0 mi South 10.4 mph - N/A   Overcast
5:53 AM 71.1 °F - 55.0 °F 57% 29.85 in 10.0 mi South 10.4 mph - N/A   Overcast
6:53 AM 71.1 °F - 55.0 °F 57% 29.85 in 10.0 mi South 11.5 mph - N/A   Overcast
7:53 AM 69.1 °F - 55.0 °F 61% 29.86 in 10.0 mi SSE 8.1 mph - N/A   Overcast
8:53 AM 70.0 °F - 55.9 °F 61% 29.86 in 10.0 mi South 11.5 mph - N/A   Overcast
9:53 AM 73.0 °F - 55.9 °F 55% 29.86 in 10.0 mi South 16.1 mph 20.7 mph N/A   Overcast
10:53 AM 77.0 °F - 57.2 °F 50% 29.85 in 10.0 mi South 17.3 mph 24.2 mph N/A   Mostly Cloudy
11:53 AM 80.1 °F 80.4 °F 57.0 °F 45% 29.81 in 10.0 mi SSE 15.0 mph - N/A   Mostly Cloudy
12:53 PM 78.1 °F - 57.0 °F 48% 29.76 in 10.0 mi SSE 13.8 mph 21.9 mph N/A   Overcast
1:28 PM 73.4 °F - 60.8 °F 65% 29.78 in 10.0 mi SW 17.3 mph 25.3 mph 0.00 in   Overcast
1:53 PM 72.0 °F - 61.0 °F 68% 29.76 in 10.0 mi WSW 19.6 mph - 0.00 in   Overcast
2:53 PM 72.0 °F - 61.0 °F 68% 29.76 in 9.0 mi SSW 15.0 mph - 0.00 in Rain Light Rain
3:41 PM 71.6 °F - 62.6 °F 73% 29.78 in 2.0 mi SSW 15.0 mph 20.7 mph 0.00 in Rain Light Rain
3:51 PM 69.8 °F - 62.6 °F 78% 29.78 in 3.0 mi South 19.6 mph 25.3 mph 0.02 in Rain Light Rain
3:53 PM 68.0 °F - 63.0 °F 84% 29.77 in 3.0 mi South 20.7 mph 26.5 mph 0.02 in Rain Light Rain
4:02 PM 66.2 °F - 62.6 °F 88% 29.77 in 8.0 mi South 15.0 mph 28.8 mph 0.00 in Rain Light Rain
4:53 PM 70.0 °F - 63.0 °F 78% 29.74 in 10.0 mi South 15.0 mph - 0.00 in   Overcast
5:53 PM 71.1 °F - 61.0 °F 70% 29.74 in 10.0 mi South 16.1 mph 25.3 mph N/A   Overcast
6:44 PM 71.6 °F - 60.8 °F 69% 29.77 in 2.0 mi SW 19.6 mph - 0.00 in Rain Rain
6:48 PM 71.6 °F - 60.8 °F 69% 29.76 in 3.0 mi SSW 23.0 mph 34.5 mph 0.00 in Rain Rain
6:53 PM 69.1 °F - 61.0 °F 75% 29.74 in 8.0 mi SSW 15.0 mph 34.5 mph 0.01 in Rain Light Rain
7:53 PM 66.9 °F - 57.0 °F 70% 29.74 in 10.0 mi South 10.4 mph - 0.00 in   Mostly Cloudy
8:45 PM 68.0 °F - 60.8 °F 78% 29.75 in 10.0 mi South 10.4 mph - 0.00 in Rain , Thunderstorm Light Thunderstorms and Rain
8:53 PM 68.0 °F - 60.1 °F 76% 29.73 in 10.0 mi South 12.7 mph - 0.00 in Thunderstorm Thunderstorm
9:03 PM 68.0 °F - 59.0 °F 73% 29.75 in 10.0 mi South 12.7 mph - N/A   Overcast
9:53 PM 63.0 °F - 54.0 °F 72% 29.76 in 10.0 mi SSE 12.7 mph - N/A   Mostly Cloudy
10:53 PM 62.6 °F - 55.4 °F 77% 29.79 in 10.0 mi South 11.5 mph - N/A   Overcast
11:53 PM 64.9 °F - 55.9 °F 73% 29.79 in 10.0 mi SW 17.3 mph 23.0 mph 0.00 in Rain Light Rain